TimeEDT,TemperatureF,Dew PointF,Humidity,Sea Level PressureIn,VisibilityMPH,Wind Direction,Wind SpeedMPH,Gust SpeedMPH,PrecipitationIn,Events,Conditions,WindDirDegrees,DateUTC
12:53 AM,66.9,62.1,84,29.81,10.0,South,12.7,23.0,N/A,,Scattered Clouds,190,2013-11-01 04:53:00
1:13 AM,66.2,62.6,88,29.82,10.0,South,16.1,24.2,N/A,,Mostly Cloudy,190,2013-11-01 05:13:00
1:33 AM,68.0,62.6,83,29.80,10.0,SSW,10.4,21.9,N/A,,Mostly Cloudy,200,2013-11-01 05:33:00
1:53 AM,68.0,61.0,78,29.77,10.0,SSW,13.8,27.6,N/A,,Overcast,200,2013-11-01 05:53:00
2:37 AM,68.0,60.8,78,29.80,10.0,SSW,16.1,32.2,0.00,,Overcast,210,2013-11-01 06:37:00
2:53 AM,68.0,61.0,78,29.75,10.0,SW,9.2,-,0.00,,Overcast,230,2013-11-01 06:53:00
3:49 AM,66.2,60.8,83,29.79,10.0,SSW,11.5,16.1,N/A,,Overcast,200,2013-11-01 07:49:00
3:53 AM,66.9,60.1,79,29.73,10.0,SSW,9.2,16.1,N/A,,Overcast,200,2013-11-01 07:53:00
4:45 AM,66.2,59.0,78,29.77,10.0,SSW,8.1,17.3,N/A,,Overcast,210,2013-11-01 08:45:00
4:53 AM,66.9,57.9,73,29.72,10.0,SSW,9.2,-,N/A,,Overcast,200,2013-11-01 08:53:00
5:53 AM,66.9,57.0,70,29.71,10.0,SSW,9.2,-,N/A,,Overcast,210,2013-11-01 09:53:00
6:30 AM,66.2,57.2,73,29.76,10.0,SSW,11.5,-,N/A,,Overcast,210,2013-11-01 10:30:00
6:53 AM,66.0,57.0,73,29.71,10.0,South,6.9,16.1,N/A,,Overcast,190,2013-11-01 10:53:00
7:53 AM,66.0,57.9,75,29.71,10.0,SSW,10.4,-,N/A,,Overcast,200,2013-11-01 11:53:00
8:53 AM,64.9,59.0,81,29.73,10.0,SSW,9.2,-,N/A,,Overcast,210,2013-11-01 12:53:00
9:53 AM,64.9,61.0,87,29.76,1.8,West,8.1,-,0.05,Rain,Heavy Rain,280,2013-11-01 13:53:00
10:03 AM,64.4,60.8,88,29.82,2.0,West,5.8,-,0.02,Rain,Rain,280,2013-11-01 14:03:00
10:11 AM,64.4,60.8,88,29.81,3.0,West,3.5,-,0.03,Rain,Light Rain,260,2013-11-01 14:11:00
10:18 AM,64.4,60.8,88,29.82,2.0,WSW,5.8,-,0.05,Rain,Rain,250,2013-11-01 14:18:00
10:24 AM,64.4,62.6,94,29.81,3.0,WSW,5.8,-,0.06,Rain,Rain,240,2013-11-01 14:24:00
10:45 AM,64.4,62.6,94,29.81,3.0,WSW,3.5,-,0.09,Rain,Rain,240,2013-11-01 14:45:00
10:53 AM,64.0,61.0,90,29.75,4.0,Calm,Calm,-,0.10,Rain,Light Rain,0,2013-11-01 14:53:00
11:02 AM,64.4,62.6,94,29.81,5.0,WSW,3.5,-,0.02,Rain,Light Rain,250,2013-11-01 15:02:00
11:07 AM,64.4,62.6,94,29.80,6.0,WSW,3.5,-,0.02,Rain,Light Rain,240,2013-11-01 15:07:00
11:21 AM,64.4,62.6,94,29.80,7.0,Calm,Calm,-,0.02,Rain,Light Rain,0,2013-11-01 15:21:00
11:32 AM,64.4,62.6,94,29.79,6.0,Calm,Calm,-,0.03,Rain,Light Rain,0,2013-11-01 15:32:00
11:53 AM,64.9,63.0,93,29.73,7.0,Calm,Calm,-,0.03,Rain,Light Rain,0,2013-11-01 15:53:00
12:10 PM,64.4,62.6,94,29.79,10.0,South,5.8,-,0.00,,Overcast,190,2013-11-01 16:10:00
12:28 PM,62.6,57.2,82,29.78,10.0,South,10.4,19.6,0.00,,Overcast,190,2013-11-01 16:28:00
12:35 PM,64.4,57.2,77,29.77,10.0,SSW,6.9,-,0.00,,Scattered Clouds,200,2013-11-01 16:35:00
12:53 PM,66.0,59.0,78,29.70,10.0,SSW,12.7,18.4,0.00,,Scattered Clouds,200,2013-11-01 16:53:00
1:53 PM,66.0,59.0,78,29.68,10.0,SSW,12.7,18.4,N/A,,Partly Cloudy,200,2013-11-01 17:53:00
2:53 PM,68.0,59.0,73,29.66,10.0,SSW,11.5,18.4,N/A,,Partly Cloudy,200,2013-11-01 18:53:00
3:21 PM,66.2,57.2,73,29.71,10.0,South,10.4,16.1,N/A,,Mostly Cloudy,190,2013-11-01 19:21:00
3:40 PM,68.0,57.2,68,29.70,10.0,SSW,12.7,-,N/A,,Scattered Clouds,210,2013-11-01 19:40:00
3:53 PM,66.9,57.9,73,29.64,10.0,South,8.1,-,N/A,,Partly Cloudy,190,2013-11-01 19:53:00
4:53 PM,66.9,57.0,70,29.63,10.0,SSW,6.9,-,N/A,,Clear,200,2013-11-01 20:53:00
5:53 PM,64.9,57.9,78,29.65,10.0,South,9.2,-,N/A,,Scattered Clouds,190,2013-11-01 21:53:00
6:04 PM,64.4,57.2,77,29.71,10.0,South,8.1,-,N/A,,Mostly Cloudy,190,2013-11-01 22:04:00
6:38 PM,62.6,57.2,82,29.71,10.0,SSW,5.8,-,N/A,,Overcast,210,2013-11-01 22:38:00
6:53 PM,62.1,57.0,84,29.66,10.0,SSW,6.9,-,N/A,,Overcast,210,2013-11-01 22:53:00
7:20 PM,60.8,57.2,88,29.71,10.0,SSW,3.5,-,N/A,,Scattered Clouds,200,2013-11-01 23:20:00
7:53 PM,60.1,57.0,90,29.68,10.0,South,3.5,-,N/A,,Clear,190,2013-11-01 23:53:00
8:53 PM,59.0,57.0,93,29.69,10.0,South,3.5,-,N/A,,Partly Cloudy,190,2013-11-02 00:53:00
9:36 PM,57.2,57.2,100,29.74,8.0,South,5.8,-,N/A,,Scattered Clouds,180,2013-11-02 01:36:00
9:53 PM,59.0,57.0,93,29.70,8.0,South,6.9,-,N/A,,Mostly Cloudy,190,2013-11-02 01:53:00
10:43 PM,59.0,57.2,94,29.75,1.8,WSW,4.6,-,N/A,,Overcast,250,2013-11-02 02:43:00
10:53 PM,57.9,57.9,100,29.70,0.8,WSW,5.8,-,N/A,,Mist,240,2013-11-02 02:53:00
11:12 PM,57.2,57.2,100,29.75,0.2,West,4.6,-,N/A,Fog,Fog,270,2013-11-02 03:12:00
11:53 PM,57.0,57.0,100,29.70,0.2,Calm,Calm,-,N/A,Fog,Fog,0,2013-11-02 03:53:00